Location: Chillicothe
(39.7950°N, 93.5520°W)
Time: 01:37:45
(UTC-05:00)

Courier 1B Rocket - Visible Passes

Search period start: 19 October 2019 00:00
Search period end: 29 October 2019 00:00
Orbit: 920 x 1202 km, 28.2° (Epoch: 17 October)

Date Brightness Start Highest point End Pass type
(mag) Time Alt. Az. Time Alt. Az. Time Alt. Az.
19 Oct 6.8 04:32:59 18° SSE 04:32:59 18° SSE 04:36:09 10° ESE visible
19 Oct 6.3 06:19:22 11° SW 06:24:24 28° S 06:29:49 10° ESE visible
20 Oct 6.2 05:22:14 24° SSW 05:23:38 26° S 05:28:47 10° ESE visible
21 Oct 6.8 04:25:05 19° SE 04:25:05 19° SE 04:27:42 10° ESE visible
21 Oct 6.2 06:11:27 15° SW 06:15:30 28° S 06:20:50 10° SE visible
22 Oct 6.0 05:14:18 28° S 05:14:45 28° S 05:19:59 10° ESE visible
22 Oct 6.5 07:02:28 10° WSW 07:07:22 24° S 07:12:22 10° SE visible
23 Oct 6.9 04:17:08 18° SE 04:17:08 18° SE 04:19:04 10° ESE visible
23 Oct 6.2 06:03:30 18° SW 06:06:36 27° S 06:11:46 10° SE visible
24 Oct 6.1 05:06:20 28° S 05:06:20 28° S 05:11:04 10° SE visible
24 Oct 6.6 06:54:03 10° WSW 06:58:25 20° SSW 07:02:51 10° SSE visible
25 Oct 7.2 04:09:10 15° SE 04:09:10 15° SE 04:10:19 10° ESE visible
25 Oct 6.3 05:55:33 20° SW 05:57:42 23° SSW 06:02:31 10° SE visible
26 Oct 6.4 04:58:24 24° SSE 04:58:24 24° SSE 05:02:02 10° SE visible
26 Oct 6.8 06:45:59 10° SW 06:49:26 15° SSW 06:52:55 10° SSE visible
27 Oct 7.4 04:01:17 11° SE 04:01:17 11° SE 04:01:26 10° SE visible
27 Oct 6.4 05:47:39 19° SSW 05:48:44 19° SSW 05:53:03 10° SSE visible
28 Oct 6.7 04:50:33 18° SSE 04:50:33 18° SSE 04:52:51 10° SE visible
28 Oct 6.9 06:39:02 10° SW 06:40:25 11° SSW 06:41:47 10° SSW visible
